Location: New Paltz
(41.7500°N, 74.0833°W)
Time: 07:10:14
(UTC-04:00)

Daily predictions for brighter satellites

Satellite Brightness Start Highest point End
(mag) Time Altitude Azimuth Time Altitude Azimuth Time Altitude Azimuth
ALOS 3.2 20:52:11 10° S 20:56:42 50° W 21:01:16 10° NNW
Resurs 01 Rocket 4.4 20:54:11 10° SW 20:57:09 18° W 21:00:08 10° NW
Cosmos 389 Rocket 4.3 20:54:21 10° NNW 20:57:29 31° W 21:00:36 10° SSW
ATLAS 5 CENTAUR R/B 2.8 20:53:03 10° NNW 20:58:53 52° NE 21:05:06 10° SE
USA 234 4.3 21:00:04 10° ENE 21:04:46 21° ESE 21:09:26 10° S
Cosmos 2278 Rocket 3.8 21:02:37 10° SE 21:05:26 14° E 21:08:16 10° ENE
PSLV R/B 3.3 21:07:05 10° W 21:10:32 72° S 21:13:55 11° ESE
Meteor 2-3 Rocket 3.9 21:07:26 10° SSW 21:13:04 78° W 21:18:41 10° N
Okean 1-7 4.1 21:09:13 10° NNW 21:13:19 46° W 21:17:26 10° SSW
Abrixas rocket 2.8 21:10:42 10° WNW 21:14:02 50° SW 21:16:54 13° SE
CZ-4 DEB 4.0 21:13:39 10° S 21:16:40 41° W 21:19:41 10° NNW
Cosmos 1844 Rocket 3.2 21:13:34 10° S 21:18:46 39° ESE 21:23:58 10° NE
Cosmos 2056 Rocket 3.5 21:13:55 10° S 21:18:58 58° ESE 21:24:01 10° NNE
Meteor 1-27 Rocket 4.4 21:14:33 10° N 21:19:45 38° ENE 21:24:14 13° SE
Cosmos 1674 Rocket 3.8 21:16:21 10° N 21:20:44 52° E 21:24:52 11° SSE
Cosmos 1371 Rocket 4.0 21:15:36 10° SSW 21:20:56 83° ESE 21:26:15 10° NNE
Cosmos 1825 3.7 21:19:37 14° SE 21:21:33 19° E 21:24:18 10° NE
Cosmos 2082 Rocket 4.4 21:20:52 10° NNE 21:23:01 12° NE 21:25:10 10° ENE
Cosmos 1340 Rocket 3.5 21:19:17 10° SSW 21:23:11 57° WNW 21:27:10 10° N
Cosmos 1939 Rocket 2.8 21:22:11 10° S 21:26:01 82° WSW 21:29:57 10° NNW
Cosmos 1461 3.9 21:21:47 10° SW 21:26:23 57° NW 21:30:52 10° NNE
Atlas Centaur 2 3.0 21:26:41 10° SSW 21:28:37 14° S 21:29:21 13° SSE
Cosmos 1782 2.9 21:25:24 10° N 21:29:24 63° E 21:32:54 13° SSE
Cosmos 2263 Rocket 3.9 21:28:24 10° SW 21:33:36 37° WNW 21:38:49 10° N
CENTAUR R/B 3.3 21:28:04 10° NW 21:35:56 75° WSW 21:43:29 13° SSE
COSMOS 2487 4.4 21:35:34 10° NNE 21:38:09 18° ENE 21:39:40 14° E
MetOp-A 4.2 21:35:01 14° SSE 21:39:40 68° ENE 21:44:59 10° N
Cosmos 2154 Rocket 4.1 21:33:58 10° SSE 21:40:02 56° E 21:46:05 10° NNE
SL-27 R/B 2.5 21:36:34 10° NNW 21:40:15 72° ENE 21:42:35 21° SSE
YAOGAN 6 2.8 21:40:07 21° SE 21:42:13 51° ENE 21:45:39 10° N
SL-8 R/B 3.6 21:37:43 10° SW 21:42:32 78° SSE 21:47:21 10° ENE
Cosmos 1408 3.4 21:40:58 21° SE 21:42:39 32° E 21:45:57 10° NNE
NOSS 2-2 (D) 3.6 21:40:17 10° SW 21:44:23 86° NW 21:49:11 10° NE
Coronas F rocket 3.3 21:43:00 10° SW 21:45:24 29° WNW 21:47:47 10° NNW
Cosmos 2184 Rocket 4.4 21:41:11 10° SSW 21:47:17 66° W 21:53:27 10° N
deb Chang Zheng 4 4.1 21:43:17 10° N 21:47:39 62° WNW 21:52:00 10° SSW
COS B Rocket 3.3 21:43:41 10° N 21:47:58 71° E 21:50:52 18° S
Cosmos 1975 Rocket 3.9 21:44:24 10° NNE 21:48:19 32° ENE 21:50:14 22° ESE
SL-08 RB Rocket 4.5 21:46:49 21° SE 21:49:20 37° ENE 21:53:36 10° N
Cosmos 1606 2.7 21:48:05 10° N 21:52:01 69° E 21:54:20 23° SSE
Okean 3 3.9 21:51:30 10° N 21:55:40 46° ENE 21:57:39 26° SE
Cosmos 1908 Rocket 3.5 21:53:55 13° S 21:57:50 78° E 22:02:16 10° N
H-2A R/B 3.1 21:56:03 20° ESE 21:58:52 32° ENE 22:03:33 10° N
NOSS 2-2 (C) 4.1 21:55:02 10° SW 21:59:06 62° NW 22:03:54 10° NNE
Envisat 3.8 21:54:25 10° S 21:59:18 48° W 22:04:14 10° NNW
USA 245 2.8 21:58:30 37° SE 21:59:29 61° ENE 22:03:00 10° N
Cosmos 1242 Rocket 3.7 21:59:17 10° NNE 22:02:30 29° ENE 22:03:15 26° E
Cosmos 1733 Rocket 4.4 21:59:55 10° SSW 22:04:03 39° WNW 22:08:12 10° N
Cosmos 1378 Rocket 3.4 22:01:27 10° N 22:05:47 80° E 22:08:06 27° SSE
MINOTAUR IV R/B 4.5 22:03:37 10° SSW 22:08:05 88° ESE 22:12:34 10° NNE
CZ-4 SHROUD 4.0 22:08:16 25° SSW 22:09:46 47° W 22:12:47 10° NNW
TIMED 4.4 22:06:09 13° SSW 22:09:58 75° ESE 22:14:21 10° NNE
Intercosmos 25 3.5 22:12:07 37° SE 22:13:02 45° E 22:16:11 10° NNE
SPOT 1/Viking Rocket 3.5 22:10:27 24° SSE 22:13:42 89° WSW 22:18:57 10° NNW
ERBS 3.3 22:12:30 10° WNW 22:15:44 36° SW 22:16:36 31° SSW
Cosmos 407 Rocket 3.8 22:13:27 10° NNW 22:18:39 62° WSW 22:21:52 23° S
Cosmos 1238 Rocket 2.4 22:17:59 10° NNW 22:21:02 71° W 22:22:00 42° SSW
Cosmos 1452 Rocket 3.5 22:17:00 10° SSW 22:22:16 89° WNW 22:27:35 10° NNE
Landsat 7 4.0 22:21:42 35° SE 22:23:31 59° ENE 22:28:13 10° N
SPOT 5 4.1 22:19:21 12° SSW 22:23:46 41° W 22:28:48 10° NNW
COSMOS 2406 4.5 22:21:43 10° NW 22:26:51 34° WSW 22:30:59 14° SSW
H-2A R/B 4.3 22:25:02 10° SW 22:28:18 20° W 22:31:31 10° NW
BREEZE-M TANK 4.0 22:17:51 10° W 22:32:35 65° N 22:35:56 14° ENE
Cosmos 2084 3.0 22:32:18 57° SSE 22:32:43 62° ESE 22:36:31 10° NE
Cosmos 614 Rocket 4.4 22:30:07 10° N 22:35:02 46° ENE 22:36:33 35° ESE
Spot 4 4.5 22:34:20 34° ESE 22:35:39 42° ENE 22:40:13 10° N
Cosmos 2218 Rocket 4.1 22:32:39 31° SSE 22:35:42 60° E 22:42:00 10° NNE
Cosmos 1140 Rocket 3.4 22:30:43 10° NNW 22:35:51 72° ENE 22:37:36 42° SE
Cosmos 1862 4.4 22:33:23 15° SW 22:36:29 42° WNW 22:40:24 10° N
Terra 2.0 22:37:59 43° SE 22:39:17 60° ENE 22:43:59 10° N
ARGOS 3.5 22:38:34 27° S 22:41:27 58° W 22:46:44 10° NNW
DMSP B5D2-2 4.2 22:36:39 10° NNE 22:41:47 55° E 22:43:08 42° SSE
ATLAS 5 CENTAUR R/B 3.7 22:38:10 10° NW 22:43:27 31° WSW 22:46:55 19° SSW
DELTA 2 DEB (DPAF) 4.1 22:42:45 48° S 22:43:59 87° WSW 22:48:29 10° NNW
Okean 2 Rocket 3.3 22:42:45 30° SSW 22:44:51 66° W 22:49:15 10° N
USA 234 3.1 22:41:47 10° NE 22:48:21 82° SE 22:54:53 10° SW
Cosmos 2278 Rocket 2.3 22:43:31 12° SSW 22:48:45 79° WNW 22:54:28 10° NNE
CZ-4B R/B 4.4 22:45:49 10° N 22:50:35 46° WNW 22:54:54 12° SW
Cosmos 1727 Rocket 4.1 22:47:21 10° N 22:53:28 62° E 22:55:27 42° SE
CZ-4C R/B 3.4 22:54:26 57° SW 22:54:52 63° WSW 22:58:49 10° NNW
Cosmos 1833 Rocket 3.4 22:50:21 10° NNW 22:55:40 41° ENE 22:57:19 33° E
Cosmos 1850 Rocket 4.0 22:50:40 10° NNW 22:56:01 82° ENE 22:57:23 51° SSE
Cosmos 1825 4.1 22:54:31 14° SW 22:57:00 27° WNW 23:00:17 10° NNW
Cosmos 1959 Rocket 4.4 22:58:48 34° S 23:01:40 86° W 23:07:49 10° N
Cosmos 1844 Rocket 4.4 22:57:41 10° WSW 23:02:42 32° NW 23:07:43 10° N
Timation 2 Rocket 3.8 22:57:31 10° NNW 23:03:33 84° WSW 23:05:20 48° SSE
Cosmos 1812 3.6 23:01:40 10° N 23:04:51 40° NE 23:04:51 40° NE
Cosmos 2082 Rocket 2.3 23:02:35 10° NNW 23:08:17 66° ENE 23:09:37 50° ESE
COSMOS 2487 4.1 23:10:40 10° NW 23:13:44 28° W 23:13:44 28° W
Cosmos 1741 Rocket 4.0 23:08:39 10° NNW 23:13:53 72° WSW 23:14:51 57° SSW
IGS 5A 3.8 23:17:59 55° WSW 23:18:10 56° W 23:22:17 10° NNW
Cosmos 2297 3.6 23:16:56 42° SSW 23:18:59 87° WNW 23:24:46 10° NNE
DNEPR-1 R/B 3.7 23:14:57 10° NW 23:20:18 69° WSW 23:20:38 67° SSW
APEX 3.7 23:22:47 59° W 23:23:11 63° WNW 23:28:02 10° NNE
Cosmos 1339 Rocket 4.4 23:17:40 10° N 23:23:49 88° E 23:25:21 54° S
Cosmos 1821 Rocket 4.5 23:31:30 42° ESE 23:32:08 43° E 23:37:59 10° NNE
Cosmos 1331 Rocket 4.2 23:33:49 53° E 23:33:49 53° E 23:38:26 10° NNE
USA 229 DEB 3.8 23:26:31 10° NNW 23:33:40 79° NE 23:35:48 49° SE
USA 229 3.8 23:26:36 10° NNW 23:33:45 79° NE 23:35:55 49° SE
Cosmos 1110 Rocket 3.9 23:36:09 68° E 23:36:09 68° E 23:41:15 10° NNE
CZ-4B R/B 4.2 23:38:42 11° NE 23:38:42 11° NE 23:38:57 10° NE
H-2A R/B 3.3 23:36:42 30° SW 23:38:10 35° W 23:43:04 10° NNW
Cosmos 1536 Rocket 4.2 23:34:36 10° NNW 23:38:55 47° W 23:39:02 47° W
Okean 1 3.8 23:35:19 10° N 23:38:43 60° NNW 23:38:43 60° NNW
Iridium 4 Rocket 3.9 23:43:22 10° N 23:49:07 61° E 23:49:35 59° ESE
Cosmos 1934 Rocket 4.2 23:52:21 50° ESE 23:52:40 51° E 23:58:28 10° NNE
